EST,Max TemperatureF,Mean TemperatureF,Min TemperatureF,Max Dew PointF,MeanDew PointF,Min DewpointF,Max Humidity, Mean Humidity, Min Humidity, Max Sea Level PressureIn, Mean Sea Level PressureIn, Min Sea Level PressureIn, Max VisibilityMiles, Mean VisibilityMiles, Min VisibilityMiles, Max Wind SpeedMPH, Mean Wind SpeedMPH, Max Gust SpeedMPH,PrecipitationIn, CloudCover, Events, WindDirDegrees
2012-12-1,56,42,28,35,30,24,85,62,38,30.43,30.38,30.33,10,9,6,6,1,9,0.00,1,,26
2012-12-2,63,47,31,49,39,28,92,72,51,30.39,30.26,30.16,10,8,4,16,5,20,T,1,Rain,204
2012-12-3,71,61,50,52,50,47,86,69,51,30.25,30.21,30.16,10,10,10,10,4,15,0.00,2,,192
2012-12-4,73,59,45,52,48,45,100,71,41,30.23,30.16,30.04,10,8,2,16,7,22,0.00,2,,210
2012-12-5,62,50,38,47,32,22,72,47,21,30.27,30.14,30.01,10,10,10,15,6,21,T,1,,335
2012-12-6,45,37,28,28,24,21,78,62,45,30.38,30.30,30.22,10,10,9,9,3,10,0.00,1,,67
2012-12-7,52,45,37,45,37,27,93,76,59,30.20,30.09,29.97,10,10,7,10,5,14,T,7,Rain,186
2012-12-8,64,55,46,51,47,44,100,80,60,30.00,29.93,29.88,10,6,0,14,6,17,0.00,4,Fog,186
2012-12-9,55,52,49,50,49,48,96,90,83,30.15,30.06,29.97,10,4,0,14,4,17,0.07,8,Fog,32
2012-12-10,64,57,49,56,54,48,100,89,78,29.95,29.71,29.60,10,6,0,16,6,21,0.01,7,Fog-Rain,195
2012-12-11,59,50,40,55,37,26,93,69,44,30.21,29.93,29.63,10,9,1,15,6,23,0.21,7,Rain,25
2012-12-12,45,40,35,29,26,23,75,60,45,30.41,30.35,30.22,10,10,10,12,4,13,0.00,3,,48
2012-12-13,48,38,28,24,22,20,69,50,31,30.46,30.40,30.35,10,10,10,14,4,18,0.00,0,,16
2012-12-14,58,40,22,27,22,20,88,56,24,30.34,30.28,30.22,10,10,10,9,2,10,0.00,0,,224
2012-12-15,52,41,30,38,28,24,85,62,38,30.28,30.20,30.11,10,10,10,8,1,9,0.05,2,Rain,170
2012-12-16,47,44,40,43,41,38,96,89,82,30.09,29.93,29.83,10,8,5,12,2,17,0.02,7,Rain,193
2012-12-17,50,45,40,47,43,39,100,90,80,29.83,29.74,29.57,8,3,0,8,2,9,0.03,7,Fog-Rain,37
2012-12-18,59,49,38,48,37,28,100,69,38,29.81,29.66,29.56,10,7,0,16,6,23,0.00,3,Fog,248
2012-12-19,61,50,38,35,30,25,70,51,32,30.16,29.96,29.81,10,10,10,13,6,20,0.00,0,,350
2012-12-20,45,39,32,43,36,30,100,81,62,30.19,29.84,29.38,10,6,2,12,4,14,0.90,5,Rain,9
2012-12-21,46,41,35,43,29,16,100,70,40,29.62,29.45,29.35,10,8,1,17,10,30,0.06,7,Rain,258
2012-12-22,47,39,30,22,15,11,56,41,25,30.05,29.88,29.63,10,10,10,18,8,35,0.00,2,,294
2012-12-23,48,38,27,23,17,10,52,43,34,30.07,29.99,29.91,10,10,10,15,5,43,0.00,0,,195
2012-12-24,44,36,28,34,30,22,100,72,43,30.08,29.96,29.89,10,4,1,8,2,9,0.15,7,Rain-Snow,23
2012-12-25,46,39,31,39,34,30,100,85,70,30.22,30.09,29.89,10,5,0,12,3,15,0.00,6,Fog,49
2012-12-26,39,35,31,34,31,28,96,83,70,30.18,29.84,29.47,10,5,1,23,10,28,0.78,8,Rain-Snow,33
2012-12-27,44,37,30,32,25,21,96,70,43,30.05,29.81,29.49,10,10,10,15,8,26,0.00,2,,296
2012-12-28,41,35,29,26,24,22,72,62,51,30.15,30.07,30.01,10,10,10,10,3,15,0.00,1,,204
2012-12-29,49,41,32,36,29,21,92,68,43,29.99,29.76,29.56,10,7,0,16,4,25,0.08,7,Fog-Rain-Snow,293
2012-12-30,53,43,33,20,16,12,52,41,30,30.33,30.17,29.89,10,10,10,25,7,37,0.00,2,,303
2012-12-31,57,46,35,28,20,14,70,47,23,30.31,30.17,30.01,10,10,10,16,6,32,0.00,2,,190